George, South Africa

11:47 PM SAST on November 17, 2017 (GMT +0200)
George

Weather History for FAGG - August, 2012

Change the Weather History Date:

Wednesday, August 1, 2012

  Actual Average Record
Temperature  
Mean Temperature 49 °F -  
Max Temperature 55 °F 64 °F 86 °F (2000)
Min Temperature 42 °F 45 °F 37 °F (2015)
Degree Days  
Heating Degree Days 16    
Moisture  
Dew Point 42 °F    
Average Humidity 78    
Maximum Humidity 93    
Minimum Humidity 58    
Precipitation  
Precipitation 0.08 in - - ()
Sea Level Pressure  
Sea Level Pressure 30.31 in    
Wind  
Wind Speed 9 mph ()    
Max Wind Speed 20 mph    
Max Gust Speed 20 mph    
Visibility 7.1 miles    
Events Rain    
Averages and records for this station are not official NWS values.
T = Trace of Precipitation, MM = Missing Value Source: Averaged Metar Reports

Daily Weather History Graph

Daily Weather History Graph

Search for Another Location

Airport or City:

Trip Planner

Search our weather history database for the weather conditions in past years. The results will help you decide how hot, cold, wet, or windy it might be!

Date:

Astronomy

Aug. 01, 2012 Rise Set
Actual Time 7:22 AM SAST 5:51 PM SAST
Civil Twilight 6:56 AM SAST 6:17 PM SAST
Nautical Twilight 6:26 AM SAST 6:47 PM SAST
Astronomical Twilight 5:56 AM SAST 7:17 PM SAST
Moon 5:24 PM SAST (8/1) 6:27 AM SAST (8/1)
Length of Visible Light 11h 21m
Length of Day
10h 28m
Waxing Gibbous, 99% of the Moon is Illuminated
Aug 1
Waxing Gibbous
Aug 2
Full
Aug 9
Last Quarter
Aug 17
New
Aug 24
First Quarter

Hourly Weather History & Observations

Time (SAST) Temp. Windchill Dew Point Humidity Pressure Visibility Wind Dir Wind Speed Gust Speed Precip Events Conditions
12:00 AM 46.4 °F 39.0 °F 42.8 °F 87% 30.18 in - West 19.6 mph - N/A Rain Rain
1:00 AM 46.4 °F 42.9 °F 44.6 °F 93% 30.21 in 6.2 mi SSW 6.9 mph 19.6 mph N/A Rain Rain
2:00 AM 47 °F - 44 °F 86% 30.26 in 6 mi West 10.4 mph - -  
2:00 AM 46.4 °F 41.9 °F 44.6 °F 93% 30.24 in 5.0 mi WNW 9.2 mph - N/A Rain Rain
3:00 AM 46.4 °F 40.4 °F 42.8 °F 87% 30.24 in 6.2 mi WNW 13.8 mph - N/A Rain Light Rain
4:00 AM 46.4 °F 40.4 °F 41.0 °F 81% 30.24 in 6.2 mi WNW 13.8 mph - N/A   Mostly Cloudy
5:00 AM 45 °F - 40 °F 78% 30.29 in 12 mi WNW 10.4 mph - -   Mostly Cloudy
5:00 AM 44.6 °F 39.2 °F 41.0 °F 87% 30.27 in 6.2 mi WNW 10.4 mph - N/A   Mostly Cloudy
6:00 AM 44.6 °F 38.8 °F 39.2 °F 81% 30.27 in 6.2 mi WNW 11.5 mph - N/A   Mostly Cloudy
7:00 AM 44.6 °F 38.4 °F 37.4 °F 76% 30.30 in 6.2 mi WNW 12.7 mph - N/A   Scattered Clouds
8:00 AM 44 °F - 38 °F 74% 30.35 in 6 mi NW 9.2 mph - - Rain Light Rain
9:00 AM 44.6 °F 43.1 °F 41.0 °F 87% 30.36 in 6.2 mi WSW 3.5 mph - N/A Rain Light Rain
10:00 AM 46.4 °F 41.9 °F 41.0 °F 81% 30.36 in 6.2 mi WNW 9.2 mph - N/A Rain Light Rain
11:00 AM 51 °F - 43 °F 67% 30.38 in 12 mi West 13.8 mph - - Rain Light Rain
11:00 AM 50.0 °F - 41.0 °F 71% 30.36 in 6.2 mi West 13.8 mph - N/A   Mostly Cloudy
12:00 PM 50.0 °F - 41.0 °F 71% 30.36 in 6.2 mi West 12.7 mph - N/A   Scattered Clouds
1:00 PM 51.8 °F - 39.2 °F 62% 30.36 in 6.2 mi WSW 10.4 mph - N/A   Mostly Cloudy
2:00 PM 53 °F - 43 °F 58% 30.36 in 12 mi WSW 10.4 mph - -   Partly Cloudy
2:00 PM 51.8 °F - 41.0 °F 67% 30.33 in 6.2 mi WSW 10.4 mph - N/A   Mostly Cloudy
3:00 PM 53.6 °F - 41.0 °F 62% 30.33 in 6.2 mi SW 5.8 mph - N/A   Mostly Cloudy
4:00 PM 51.8 °F - 41.0 °F 67% 30.33 in 6.2 mi SSW 9.2 mph - N/A   Mostly Cloudy
5:00 PM 51 °F - 43 °F 65% 30.35 in 12 mi SW 5.8 mph - -   Mostly Cloudy
5:00 PM 51.8 °F - 42.8 °F 71% 30.33 in 6.2 mi SW 4.6 mph - N/A   Mostly Cloudy
6:00 PM 50.0 °F - 42.8 °F 76% 30.33 in 6.2 mi West 2.3 mph - N/A   Mostly Cloudy
7:00 PM 48.2 °F - 42.8 °F 82% 30.33 in 6.2 mi NNW 4.6 mph - N/A   Scattered Clouds
8:00 PM 47 °F - 42 °F 78% 30.35 in 12 mi North 2.3 mph - -   Partly Cloudy
8:00 PM 48.2 °F - 42.8 °F 82% 30.33 in 6.2 mi North 3.5 mph - N/A   Scattered Clouds
9:00 PM 46.4 °F 45.2 °F 42.8 °F 87% 30.33 in 6.2 mi North 3.5 mph - N/A   Mostly Cloudy
10:00 PM 44.6 °F 43.1 °F 42.8 °F 93% 30.33 in 6.2 mi NE 3.5 mph - N/A   Mostly Cloudy
11:00 PM 42.8 °F 41.1 °F 39.2 °F 87% 30.33 in 6.2 mi NNE 3.5 mph - N/A   Partly Cloudy